Date,TemperatureHighF,TemperatureAvgF,TemperatureLowF,DewpointHighF,DewpointAvgF,DewpointLowF,HumidityHigh,HumidityAvg,HumidityLow,PressureMaxIn,PressureMinIn,WindSpeedMaxMPH,WindSpeedAvgMPH,GustSpeedMaxMPH,PrecipitationSumIn
2013-11-1,52.0,45.4,39.4,47.0,42.2,37.6,95,89,77,29.76,29.55,11,2,11,0.00
2013-11-2,52.3,45.2,36.1,47.3,42.0,34.4,97,89,78,29.55,28.96,34,10,34,0.06
2013-11-3,49.8,44.5,41.7,43.8,40.6,38.2,93,87,76,29.50,29.23,22,7,22,0.03
2013-11-4,48.4,42.2,35.1,42.9,38.5,33.0,93,87,80,29.42,29.22,12,4,12,0.00
2013-11-5,45.1,45.1,45.1,43.0,42.8,42.7,92,92,91,29.24,29.22,4,4,4,0.00
2013-11-6,46.4,44.7,42.1,44.6,43.2,40.5,95,94,93,29.52,29.37,18,5,18,0.06
2013-11-7,47.8,45.8,41.7,43.2,42.0,40.1,94,86,83,29.59,29.29,13,6,13,0.03
2013-11-8,45.0,44.9,44.8,41.3,41.2,41.1,87,87,87,29.59,29.59,5,4,5,0.00
2013-11-9,47.3,44.7,40.8,42.7,41.3,39.0,93,88,83,29.69,29.25,13,6,13,0.00
2013-11-10,50.9,45.9,37.6,50.1,42.8,36.3,97,89,77,30.07,29.69,21,5,21,0.20
2013-11-11,53.4,51.6,50.0,50.8,49.2,47.5,97,91,89,30.16,29.88,21,5,21,0.27
2013-11-12,50.5,46.0,41.2,47.5,42.8,38.6,95,89,76,30.50,29.87,14,6,14,0.00
2013-11-13,50.5,46.9,39.2,47.4,43.9,37.0,92,89,86,30.48,29.63,23,10,23,0.03
2013-11-14,47.3,46.3,45.3,42.9,41.3,40.6,87,83,79,30.52,30.10,21,7,21,0.00
2013-11-15,51.3,48.4,45.1,47.5,44.3,41.2,88,86,84,30.55,30.48,12,5,12,0.00
2013-11-16,53.1,51.1,49.8,49.2,47.7,45.5,94,88,83,30.49,30.36,12,6,12,0.00
2013-11-17,55.2,52.8,50.7,53.5,51.4,49.3,97,95,93,30.37,29.28,7,3,7,0.06
2013-11-18,42.4,39.0,37.0,37.9,36.1,34.5,92,90,84,29.89,29.37,12,6,12,0.17
2013-11-19,36.9,36.7,36.3,34.5,34.3,33.9,91,91,91,29.88,29.87,7,6,7,0.00
2013-11-21,39.9,39.7,39.7,34.4,33.8,33.4,81,79,78,29.68,29.65,27,5,27,0.00
2013-11-22,43.5,38.2,34.7,38.8,34.6,31.5,91,87,81,29.65,29.65,7,3,7,0.00
2013-11-23,45.1,42.5,32.9,43.2,40.3,30.0,94,92,88,29.65,29.65,10,4,10,0.00
2013-11-24,47.3,45.4,44.2,43.7,42.6,40.5,95,90,86,29.65,29.65,12,3,12,0.00
2013-11-25,47.3,44.3,30.2,40.8,39.5,-20.0,90,84,10,31.82,29.65,8,3,8,0.00
2013-11-26,44.1,44.1,44.1,40.7,40.7,40.7,88,88,88,30.17,30.17,4,4,0,0.00
2013-11-27,44.1,44.1,44.1,40.7,40.7,40.7,88,88,88,30.17,30.17,4,4,0,0.00
2013-11-28,30.2,30.2,30.2,-20.0,-20.0,-20.0,10,10,10,30.99,30.99,4,4,0,0.00
2013-11-29,30.2,30.2,30.2,-20.0,-20.0,-20.0,10,10,10,30.99,30.99,4,4,0,0.00
2013-11-30,30.2,30.2,30.2,-20.0,-20.0,-20.0,10,10,10,30.99,30.99,4,4,0,0.00